Uitslag Mr T sporta triathlon Gent top 3

# Naam Totaal
1 Vos Yannick 01:01:07 85.89
2 Hendrickx Kristof 01:01:36 84.29
3 Tilman Nicolas 01:02:26 83.61
4 Van Vooren Brecht 01:02:34 83.50
5 Vanparrys Jano 01:02:47 83.32
6 De Gendt Ruben 01:02:52 83.25
7 Dieussaert Dennis 01:03:50 82.45
8 Kindermans Pieter-jan 01:04:58 81.52
9 Verschueren Thomas 01:05:12 81.33
10 Lievens Filip 01:05:29 81.09
11 De Wannemaeker Nick 01:05:38 80.97
12 Bruyneel Stijn 01:05:51 80.79
13 Lagache Stijn 01:05:52 80.78
14 Meul Matthias 01:05:57 80.71
15 De Dobbelaere Jan 01:06:28 80.28
16 Pauwels Bart 01:06:30 80.26
17 Galle Samuel 01:06:36 80.17
18 Santy Vincent 01:06:41 80.10
19 Heynssens Hans 01:06:52 79.95
20 Vangrunderbeek Seb 01:07:18 79.60
21 De Roo Johannes 01:07:24 79.51
22 Pannecoucke Gilles 01:07:36 79.35
23 De Vriendt Simon 01:07:44 79.24
24 Harinck David 01:07:48 79.18
25 De Meester Wim 01:08:01 79.01
26 Vercarre Jurgen 01:08:05 78.95
27 Brackx Brecht 01:08:25 78.68
28 Van Den Berghe Bjorn 01:08:31 78.59
29 NAUDTS Peter 01:08:37 78.51
30 Delobelle Guillaume 01:08:42 78.44
31 Flott Timothy 01:08:44 78.42
32 Bauwens Nils 01:08:53 78.29
33 Debruyne Frederik 01:08:58 78.22
34 Allebosch Gianni 01:08:59 78.21
35 Van Osselt Thierry 01:09:14 78.00
36 De Wispelaere Luc 01:09:32 77.76
37 Hendrickx Bart 01:09:37 77.69
38 Lycke Stijn 01:09:40 77.65
39 Vercaigne Dieter 01:09:44 77.59
40 Dobbelaere Bert 01:09:46 77.56
41 Wollants Wies 01:09:58 77.40
42 Thai-thuc Yann 01:10:03 77.33
43 De Somviele Bert 01:10:13 77.19
44 Misplon Bert 01:10:18 77.12
45 Dierickx Koen 01:10:27 77.00
46 Rombaut Amber 01:10:30 79.71
47 Decramer Robin 01:10:38 76.85
48 Vanthomme Simon 01:10:44 76.77
49 Van Dyck Peter 01:10:47 76.73
50 Scheerens Elise 01:10:50 78.28
51 Bodere Joachim 01:11:10 76.41
52 Talpe Tony 01:11:10 76.41
53 Suys Mieke 01:11:17 77.97
54 Roeygens Lodewijk 01:11:30 76.14
55 Juliens Aaron 01:11:36 76.05
56 Ringoot Kevin 01:11:39 76.01
57 Vermeulen Bram 01:11:50 75.86
58 Kuborn Xavier 01:11:53 75.82
59 Van Damme Dennis 01:11:58 75.75
60 De Moor Joachim 01:12:14 75.53
61 Devloo Dries 01:12:16 75.50
62 Haegebaert Robin 01:12:21 75.44
63 Charlet Cedric 01:12:27 75.35
64 Gerlo Joeri 01:12:33 75.27
65 Blondeel Jensen 01:12:36 75.23
66 Van De Velde Stieven 01:12:38 75.20
67 Imbo Kristel 01:12:43 76.99
68 Toch Jonas 01:12:51 75.02
69 Verstraete Pieter 01:13:03 74.86
70 Bauters Jeroen 01:13:07 74.80
71 Meire Kathleen 01:13:24 76.52
72 De Meyer Thomas 01:13:27 74.53
73 Mortier Niek 01:13:30 74.49
74 Ghillebert Stef 01:13:37 74.39
75 Verbeke Bert 01:13:44 74.30
76 Van Hoecke Ann-sophie 01:13:48 76.24
77 Vermote Harm 01:13:50 74.21
78 Uyttershaut Dany 01:13:52 74.19
79 INGELBRECHT NICO 01:13:58 74.10
80 Huysveld Olivier 01:14:10 73.94
81 Van Londersele Sven 01:14:13 73.90
82 Vandenberge Tim 01:14:14 73.88
83 Knoll Bart 01:14:16 73.86
84 Delhaye Cedric 01:14:18 73.83
85 Daeseleire Tim 01:14:20 73.80
86 Vandevelde Liesbeth 01:14:21 75.86
87 Torbeyns Fien 01:14:23 75.84
88 Vandervorst Tuur 01:14:24 73.75
89 Vanhove Kenneth 01:14:26 73.72
90 Vereertbrugghen Cyriel 01:14:31 73.65
91 Mussche Peter 01:14:35 73.60
92 Clinckaert Michiel 01:14:37 73.57
93 Van Renterghem Pieter 01:14:41 73.51
94 Vlamynck Hans 01:14:49 73.40
95 De Vreese Elke 01:14:55 75.48
96 Verhaegen Charlotte 01:15:02 75.40
97 Harinck Jonas 01:15:10 73.12
98 Rootsaert Arno 01:15:11 73.10
99 De Sloovere Maxim 01:15:19 72.99
100 Andrea Lomazzi 01:15:20 72.98
101 Jaymaert Laurent 01:15:20 72.98
102 Pickavet Mario 01:15:22 72.95
103 Garsbeke August 01:15:24 72.92
104 Neuckermans Bouter 01:15:24 72.92
105 Goethals Willem 01:15:27 72.88
106 Holvoet Pieter 01:15:28 72.87
107 Luyckx Sam 01:15:29 72.86
108 Dhont Christiaan 01:15:30 72.84
109 Blontia Nico 01:15:30 72.84
110 De Gang Jochen 01:15:31 72.83
111 Helderweirt Sander 01:15:32 72.81
112 Elbers Alex 01:15:34 72.79
113 Van Craeynest Kenzo 01:15:39 72.72
114 Van Duerm Herwig 01:15:43 72.66
115 Vanden Broeck Nico 01:15:44 72.65
116 Vanoverschelde Jelle 01:16:00 72.43
117 Nieuwborg Dieter 01:16:02 72.40
118 Vankelecom Pieter 01:16:06 72.35
119 Raman Nick 01:16:13 72.25
120 Vervust Benjamin 01:16:14 72.24
121 Sneijers Ronald 01:16:19 72.17
122 Bruggeman Antoon 01:16:22 72.13
123 Vanhaverbeke Benjamien 01:16:22 72.13
124 Paeleman Joeri 01:16:27 72.06
125 Van Leuven Sharon 01:16:33 74.35
126 Cappaert -paulus Lieve 01:16:35 74.33
127 Beerens Steven 01:16:37 71.92
128 De Meyer Tom 01:16:44 71.83
129 Bergsma Benno 01:16:48 71.77
130 Beynaerts Jessy 01:16:51 74.15
131 Wattez Bart 01:17:00 71.61
132 Vandorpe Tim 01:17:00 71.61
133 Vanduyver Dimitri 01:17:00 71.61
134 De Schepper Jeroen 01:17:14 71.41
135 Martin Yves 01:17:14 71.41
136 Stuyck Luc 01:17:23 71.29
137 Van Wietendaele Ingemar 01:17:24 71.28
138 Boon Dimitri 01:17:25 71.26
139 Tempelaere Brecht 01:17:28 71.22
140 Verhaevert Wiet 01:17:37 71.10
141 Donckels Julien 01:17:37 71.10
142 Coudron Bart 01:17:38 71.08
143 De Schepper Basiel 01:17:46 70.97
144 Braet David 01:17:50 70.92
145 De Ro Wouter 01:17:51 70.91
146 Durabile Valentino 01:17:55 70.85
147 Weyers Filip 01:17:56 70.84
148 Vankelecom Jeroen 01:17:58 70.81
149 Dewulf Christophe 01:18:00 70.78
150 Van De Steene Kurt 01:18:01 70.77
151 Sercu Jeannick 01:18:01 70.77
152 de maeyer jan 01:18:15 70.58
153 Van Haesbroeck Dirk 01:18:24 70.45
154 Strubbe Mathieu 01:18:27 70.41
155 Creelle Stephan 01:18:30 70.37
156 Heyman Olivier 01:18:31 70.36
157 De Venter Miel 01:18:31 70.36
158 Ramboer Filip 01:18:31 70.36
159 Vanhercke Kjartan 01:18:37 70.27
160 Juliens Edwin 01:18:38 70.26
161 De Waele Valerie 01:18:38 72.92
162 De Meyer Tom 01:18:40 70.23
163 Fasseur Frederick 01:18:40 70.23
164 Benjamin Estiévenart 01:18:41 70.22
165 Lamon Bohdan 01:19:02 69.93
166 Cautaerts Jelle 01:19:06 69.88
167 Lannoye Stijn 01:19:08 69.85
168 Van Hecke Peter 01:19:13 69.78
169 Braeckman Bert 01:19:19 69.70
170 Meert Carl 01:19:20 69.68
171 Van Hoorebeke Alain 01:19:21 69.67
172 Ost Jan 01:19:25 69.61
173 Tack Jan 01:19:28 69.57
174 Aerts Kim 01:19:36 72.26
175 Bettens Ben 01:19:38 69.44
176 Moerenhout Bart 01:19:39 69.42
177 Tempelaere Tineke 01:19:43 72.18
178 Stobbeleir Erik 01:19:47 69.31
179 Droesbeke Nico 01:19:53 69.23
180 Van De Kerckhove Annelore 01:19:55 72.04
181 Plaetinck Silke 01:19:56 72.03
182 Van Aertselaere Tonny 01:20:00 69.13
183 Daelemans Wout 01:20:01 69.12
184 De Wit Leen 01:20:06 71.91
185 Demyttenaere Charlotte 01:20:12 68.97
186 De Schrijver Jeroen 01:20:16 68.91
187 Torbeyns Tine 01:20:23 71.72
188 Lossie Lynn 01:20:26 71.69
189 De Coeyer Nico 01:20:27 68.76
190 Van Der Stede Thibaux 01:20:33 68.68
191 Meyvis Jan 01:20:35 68.65
192 Bruneel Kennith 01:20:40 68.59
193 Toebat Andrew 01:20:45 68.52
194 Meynen Ninke 01:20:48 71.43
195 Willemyns Luc 01:20:51 68.43
196 De Craene Benjamin 01:20:52 68.42
197 Ronsmans Tim 01:20:53 68.41
198 D'haene Kurt 01:20:54 68.39
199 Naessens Hanne 01:20:54 71.36
200 Van Vooren Jan 01:20:57 68.35
201 De Smet Kevin 01:21:00 68.31
202 Van Branden Serge 01:21:01 68.30
203 Van Gucht Hanneke 01:21:05 71.24
204 Vlamijnck Yves 01:21:06 68.23
205 Van Eenooghe Willem 01:21:09 68.19
206 De Wolf Sven 01:21:09 68.19
207 Bex Tine 01:21:09 71.19
208 Slock Thomas 01:21:14 68.12
209 Van Hyfte Maarten 01:21:15 68.10
210 Niesten Jelle 01:21:15 68.10
211 Decoene Jan 01:21:21 68.02
212 Mettepenningen Bruno 01:21:21 68.02
213 De Vreese Patrik 01:21:23 67.99
214 Torbeyns Jo 01:21:25 67.97
215 Delhaye Luc 01:21:30 67.90
216 Gyselinck Johan 01:21:35 67.83
217 Van De Gender Steven 01:21:37 67.80
218 De Ridder Kris 01:21:40 67.76
219 Vanderper Bregt 01:21:41 67.75
220 Elleboudt Nicolas 01:21:43 67.72
221 Rombout Patrick 01:21:48 67.65
222 Van Hamme Kurt 01:21:50 67.62
223 Vandeplassche Lie 01:21:54 70.68
224 Parmentier Karel 01:21:56 67.54
225 Weyts Annelies 01:21:58 70.63
226 Willems Sarah 01:21:58 70.63
227 D'Hondt Kris 01:21:59 67.50
228 Desimpelaere Andy 01:22:00 67.49
229 Poot Manuel 01:22:01 67.47
230 Mannaert Kristof 01:22:02 67.46
231 Van Haelter Dirk 01:22:02 67.46
232 De Kesel Jos 01:22:05 67.42
233 Decoodt Wim 01:22:06 67.40
234 Claeys Tom 01:22:08 67.38
235 Malfait Mathias 01:22:16 67.27
236 Tytgat Benjamin 01:22:18 67.24
237 Vandeghinste Sam 01:22:24 67.16
238 Verloigne Maite 01:22:25 70.32
239 Peleman Philippe 01:22:32 67.05
240 Van Hecke Reinhard 01:22:34 67.02
241 Costermans Ines 01:22:35 70.21
242 Smret Diego 01:22:37 66.98
243 Eyckerman Rob 01:22:38 66.96
244 Vandoorn Winny 01:22:39 66.95
245 Nevejans Pieter 01:22:40 66.94
246 De Haes Tinne 01:22:45 70.09
247 Vermeiren Vadim 01:22:48 66.83
248 Fornier Wouter 01:22:56 66.72
249 De Smet Filip 01:22:58 66.69
250 Lindemans Lukas 01:23:02 66.64
251 Derudder Mark 01:23:06 66.58
252 Peeters Bente 01:23:07 69.84
253 Bardyn Dieter 01:23:11 66.51
254 Ameye Koen 01:23:15 66.46
255 Goris Els 01:23:15 69.75
256 Cappuyns Ann 01:23:15 69.75
257 Vandercruyssen Celine 01:23:17 69.73
258 Devloo Stefaan 01:23:19 66.40
259 Goh Kester 01:23:27 66.29
260 De Bisschop Jan 01:23:30 66.25
261 Smet Sarah 01:23:30 69.58
262 Karnas An 01:23:34 69.53
263 Braekeveldt Bart 01:23:41 66.10
264 De Vidts Bart 01:23:44 66.06
265 Derycke Jeroen 01:23:45 66.05
266 Durieux Jeroen 01:23:49 65.99
267 Demeulemeester Nico 01:23:53 65.94
268 Van Nieuwenhove Laurent 01:23:56 65.89
269 clement marie-laure 01:23:56 69.28
270 Verheecke Margaux 01:24:02 69.21
271 Giacomo Padovan 01:24:09 65.72
272 Roggeman Johan 01:24:12 65.67
273 Nelis Kristof 01:24:14 65.65
274 Schrurs Bart 01:24:15 65.63
275 Matthys Johan 01:24:16 65.62
276 Frank Damman 01:24:16 65.62
277 Haenebalcke Laure 01:24:17 69.04
278 Van De Graaf Thijs 01:24:19 65.58
279 Defeyter Ine 01:24:22 68.98
280 Laruelle Jürgen 01:24:24 65.51
281 Vanderhaeghe Dries 01:24:30 65.43
282 De Meulemeester Kathleen 01:24:33 68.86
283 Farr Sarah 01:24:35 68.83
284 Fornier Stijn 01:24:40 65.29
285 Adriaenssens Lorenzo 01:24:42 65.26
286 Provoost Geert 01:24:43 65.25
287 Raymaekers Peter 01:24:46 65.21
288 Bradt Sofie 01:24:48 68.68
289 Devos Kevin 01:24:49 65.17
290 Rooryck Jasmine 01:24:50 68.66
291 Druon Deborah 01:24:52 68.64
292 De Pelsmaeker Ben 01:24:53 65.11
293 Vanpraet Jan 01:24:54 65.10
294 Van Helleputte Christophe 01:24:55 65.08
295 Verthongen Yannick 01:24:56 65.07
296 Gheysen Kris 01:24:56 65.07
297 Meert Bart 01:25:03 64.97
298 Mertens Evelien 01:25:04 68.50
299 Versyp Merlijn 01:25:09 64.89
300 Van Damme Nicolas 01:25:12 64.85
301 Tack Charlotte 01:25:14 64.82
302 Pinto Timothy 01:25:16 64.80
303 Beeckman Gert 01:25:17 64.78
304 Declerck Sofie 01:25:19 68.33
305 De Ryst Jana 01:25:20 68.32
306 Rombaut Paul 01:25:21 64.73
307 Daem Valentijn 01:25:25 64.67
308 Van Mulders Jan 01:25:31 64.59
309 Carbonez Jeroen 01:25:34 64.55
310 Dupont Dominique 01:25:43 64.43
311 Depoortere Marie 01:25:44 68.04
312 Lips Johannes 01:25:45 64.40
313 Baetens Reinout 01:25:53 64.29
314 Van Kerrebrouck Jurgen 01:25:57 64.23
315 Lansens Michael 01:25:58 64.22
316 Vandenborre Jolien 01:26:04 67.81
317 Balliu Kaya 01:26:07 67.78
318 Van Moldergem Jurgen 01:26:08 64.08
319 Van Hauwermeiren Thomas 01:26:09 64.07
320 Deleu Peter 01:26:13 64.01
321 Beirnaert Kathleen 01:26:16 67.68
322 Persoon Greet 01:26:17 67.67
323 Goossens Davy 01:26:18 63.94
324 De Corte Els 01:26:19 67.64
325 Leunis Nena 01:26:25 67.57
326 Paz Sagues Pablo 01:26:26 63.83
327 Neyt Sara 01:26:26 67.56
328 Groothaerd Jurgen 01:26:27 63.82
329 D'hooge Michael 01:26:33 63.74
330 Dermul Bart 01:26:35 63.71
331 De Buysser Frederik 01:26:38 63.67
332 Vandeputte Olivier 01:26:42 63.61
333 Verdonck Dries 01:26:48 63.53
334 Vanderbeke Steven 01:26:49 63.52
335 Vandevondele Joris 01:26:49 63.52
336 Popelier Valerie 01:26:56 67.22
337 Wittouck Hermien 01:26:56 67.22
338 Moreau Rene 01:26:58 63.40
339 Soenen Björn 01:27:00 63.37
340 Van De Velde Ruben 01:27:02 63.34
341 D'haene Mieke 01:27:04 67.13
342 Ghyselinck Eva 01:27:04 67.13
343 Piessen Kim 01:27:06 67.10
344 Missant Bart 01:27:12 63.20
345 Aubrey Alastair 01:27:20 63.09
346 Wiels Lieselotte 01:27:21 66.93
347 Verthé Pascal 01:27:23 63.05
348 deweerdt karel 01:27:25 63.02
349 De Vleeschhouwer Freek 01:27:28 62.98
350 De Venter Rein 01:27:28 62.98
351 De Bruycker Helena 01:27:33 66.80
352 Van Der Beken Davy 01:27:39 62.83
353 Nouwens Aukje 01:27:40 66.72
354 Van Uytfang Femke 01:27:41 66.70
355 Versprille Niki 01:27:42 66.69
356 Bogaert Maarten 01:27:44 62.76
357 Van Vlierberghe Leen 01:27:45 66.66
358 Vanhoutte Bart 01:27:51 62.67
359 Evenepoel Jan 01:27:52 62.65
360 Cogghe Frank 01:27:53 62.64
361 Bert Kristel 01:27:54 66.55
362 Vanhoucke Steve 01:28:04 62.49
363 Cludts Alain 01:28:04 62.49
364 De Coen Achim 01:28:07 62.45
365 Lavrysen Laurens 01:28:08 62.43
366 De Vuyst Jos 01:28:09 62.42
367 De Volder Ronny 01:28:09 62.42
368 Galens Steven 01:28:11 62.39
369 Devos Andreas 01:28:14 62.35
370 Wattez Tom 01:28:17 62.31
371 Van Hende Iwan 01:28:21 62.26
372 Viaene Pierre-adrien 01:28:23 62.23
373 Jacob Lica 01:28:30 66.14
374 Masscho Francis 01:28:31 62.12
375 Huylebroek Julie 01:28:33 66.11
376 Calu Hans 01:28:36 62.05
377 Goeminne Gert 01:28:36 62.05
378 De Meyer Sarah 01:28:39 66.04
379 Van Hulle Cindy 01:28:43 65.99
380 Van Parijs Matisse 01:28:47 61.90
381 Rijckaert Sandra 01:28:52 65.89
382 Van Esbroeck Femke 01:28:53 65.88
383 Guiot Francois-xavier 01:28:55 61.79
384 Defeyter Lisa 01:28:57 65.83
385 Batenburg Myrthe 01:29:06 65.73
386 Arnout Roosen 01:29:07 61.62
387 Van Gasse Bart 01:29:09 61.60
388 Vanhecke Mieke 01:29:15 65.63
389 Verdonck Joyce 01:29:18 65.59
390 Docquir Liana 01:29:31 65.44
391 Veracx Aline 01:29:35 65.40
392 Planckaert Thijs 01:29:36 61.23
393 Van Bellingen Stefan 01:29:41 61.16
394 Delanote Hanne 01:29:41 65.33
395 Van Laere Peter 01:29:49 61.05
396 Van Biesen Andy 01:29:49 61.05
397 Vercruysse Marc 01:29:51 61.02
398 Van Acker Roel 01:29:56 60.95
399 Van Ryssel Manon 01:30:10 60.76
400 Vervisch Mieke 01:30:16 64.93
401 beurms simon 01:30:17 60.66
402 Van Hooreweghe Servaas 01:30:28 60.51
403 Van Den Bogaert Thomas 01:30:29 60.50
404 Lips Bart 01:30:30 60.48
405 Pouillie Brecht 01:30:36 60.40
406 Donné Simon 01:30:40 60.35
407 Vermaercke Thomas 01:30:43 60.31
408 Willemyns Ina 01:30:43 64.62
409 Baecke Eveline 01:30:48 64.56
410 Loyen Pascal 01:30:51 60.20
411 Agache Evelien 01:30:52 64.52
412 Vanhoegaarden Thierry 01:30:58 60.10
413 De Moor Audrey 01:30:58 64.45
414 Hubrechts Goedele 01:31:02 64.40
415 Aertsen Peter 01:31:03 60.03
416 Brauc Sigrid 01:31:05 64.37
417 Vermeir Karen 01:31:08 64.33
418 Vanwambeke Miek 01:31:09 64.32
419 Buyl Aafke 01:31:11 64.30
420 Deman Fabian 01:31:13 59.89
421 Goidts Anne 01:31:13 64.28
422 Timmermans Lore 01:31:14 64.26
423 Bonte Mieke 01:31:26 64.13
424 Van Herreweghe Sofie 01:31:26 64.13
425 Lebbe Patricia 01:31:33 64.05
426 Volckaert Lieven 01:31:44 59.47
427 De Vos Krista 01:31:49 63.86
428 Aps Jan 01:31:54 59.33
429 Van Renterghem Peter 01:31:56 59.30
430 Decock Wim 01:31:59 59.26
431 Naessens Tim 01:32:00 59.25
432 Verhelle Adriaan 01:32:01 59.24
433 Van Osselaer Josefien 01:32:01 63.73
434 Depaepe Daan 01:32:04 59.19
435 VERSCHUERE Dominique 01:32:06 59.17
436 Devos Kenneth 01:32:10 59.11
437 Delobelle Axelle 01:32:21 63.50
438 Vandemoortele Jolien 01:32:22 63.49
439 Peeleman Dorien 01:32:25 63.45
440 Olivier Steven 01:32:34 58.78
441 D'haenens Stefaan 01:32:37 58.74
442 Weidener Tim 01:32:41 58.69
443 Van Kerrebroeck Sandy 01:32:41 63.27
444 Lampaert Laurent 01:32:44 58.64
445 Heymans Niels 01:33:00 58.43
446 Neckebroek Julie 01:33:00 63.05
447 Reynaert Youri 01:33:09 58.30
448 Van Slycken Steven 01:33:13 58.25
449 Gysens Linda 01:33:17 62.86
450 Van De Sijpe Joke 01:33:17 62.86
451 De Laere Peter 01:33:22 58.12
452 Verstraete Filip 01:33:23 58.11
453 Vergauwe Sien 01:33:23 62.79
454 Van Rumst Thea 01:33:30 62.71
455 Durnez Miet 01:33:39 62.60
456 Everaert Nel 01:33:40 62.59
457 Raymaekers Rien 01:33:41 62.58
458 Lips Koen 01:33:47 57.78
459 Bonte Anja 01:33:48 62.50
460 Van Der Poel Joannes 01:33:49 57.75
461 Van Over Scheldt Reinhold 01:33:58 57.63
462 Verraes Natalie 01:33:59 62.38
463 Gillis Faye 01:33:59 62.38
464 Azhar Wasim 01:34:00 57.60
465 Chapanov Stanil 01:34:03 57.56
466 Hermans Regine 01:34:11 62.24
467 Neutens Tom 01:34:25 57.26
468 Simoen Frederik 01:34:31 57.18
469 Joos Kathleen 01:34:37 61.94
470 Huyghe Anneleen 01:34:46 61.84
471 D'hondt Björn 01:34:52 56.89
472 De Meester An 01:34:53 61.76
473 Bovijn Joris 01:34:58 56.81
474 Van Hecke Wim 01:35:04 56.72
475 Muylaert Katherine 01:35:07 61.60
476 Vermassen Nathalie 01:35:07 61.60
477 T Kindt Tony 01:35:09 56.65
478 Van Den Eijnden Christel 01:35:11 61.55
479 Van Autreve Boudewijn 01:35:14 56.59
480 Robesyn Valérie 01:35:14 61.52
481 D'hooge Elizabet 01:35:14 61.52
482 De Wannemaeker Bruno 01:35:19 56.52
483 Velghe Frederik 01:35:23 56.46
484 Caekelbergh Karin 01:35:25 61.39
485 Herman Roosmarijn 01:35:26 61.38
486 Leytens Piet 01:35:33 56.32
487 Claus Dirk 01:35:34 56.31
488 Verhelst Gudrun 01:35:41 61.21
489 Degrendel Sofie 01:36:03 60.96
490 Wallays Carlos 01:36:04 55.90
491 Dejonckheere Babette 01:36:16 60.81
492 Youssef Emine 01:36:17 55.72
493 Van Den Neucker Luc 01:36:17 55.72
494 Vangampelaere Valerie 01:36:35 60.59
495 Decrans Annelies 01:36:41 60.52
496 Haentjens Evelien 01:36:46 60.46
497 De Rouck Chris 01:36:59 55.14
498 Quatacker Bert 01:37:00 55.13
499 Depoorter Sabine 01:37:16 60.12
500 Antonio Ribeiro Alves Junior 01:37:17 54.90
501 Remmerie Filip 01:37:25 54.79
502 Coene Philippe 01:37:34 54.66
503 Van Summeren Maycke 01:37:44 59.80
504 Vanlooy Noël 01:37:49 54.46
505 Landuyt Kurt 01:37:49 54.46
506 Durnez Lies 01:37:52 59.71
507 De Brouwere Annelies 01:37:54 59.68
508 Devos Wim 01:38:12 54.14
509 Verlinde Valerie 01:38:18 59.41
510 Pot Emil 01:38:32 53.87
511 Van Thuyne Marijke 01:38:33 59.24
512 D'heygere Sofie 01:38:36 59.20
513 Vanwildemeersch Daan 01:38:47 53.66
514 Goegebuer Carolien 01:39:00 53.48
515 Ureel Kaat 01:39:12 58.79
516 Van Eeghem Pascale 01:39:14 58.77
517 De Coninck Joris 01:39:30 53.07
518 Van Den Bergh Julie 01:39:30 58.58
519 Panis Wendy 01:39:53 58.32
520 Weckx Ann 01:40:00 58.24
521 De Vos Annelien 01:40:03 58.21
522 Vancraynest Veerle 01:40:03 58.21
523 Van Huffel Veerle 01:40:05 58.18
524 Bardyn Laurens 01:40:07 52.56
525 De Schutter Eline 01:40:22 57.99
526 De Bruecker Greet 01:40:28 57.92
527 Naessens Miek 01:40:28 57.92
528 Dagrir Cyril 01:40:29 52.26
529 De Backer Lien 01:40:31 57.89
530 Symoens Nadia 01:40:40 57.78
531 Vercruysse Veronique 01:40:44 57.74
532 Vandewalle Tania 01:40:46 57.71
533 Allonsius Kim 01:40:47 57.70
534 De Rijck Ronny 01:40:49 51.99
535 Naeye Nadia 01:40:50 57.67
536 Vanderheijden Matthias 01:41:15 51.63
537 Vandenbulcke Lien 01:41:16 57.37
538 Beck Ilse 01:41:22 57.30
539 Debucquoy Aude 01:41:24 57.28
540 Van Assche Elke 01:41:27 57.24
541 Legrand Mélanie 01:41:32 57.19
542 Moins Sylvia 01:41:44 57.05
543 Verbeke Aline 01:41:49 51.16
544 D'hulster Ward 01:41:57 51.05
545 De Ridder Sofie 01:41:57 56.90
546 Bauters Janna 01:41:58 56.89
547 Sinia Isabelle 01:42:17 56.67
548 Delaere Nils 01:42:24 50.68
549 Pleier Cordula 01:42:33 56.49
550 Vandamme Marian 01:42:45 56.35
551 Decoster Lore 01:42:55 56.24
552 Landuyt Nathalie 01:43:01 56.17
553 Peeters Jeroen 01:43:06 50.10
554 De Bruyne Geert 01:43:13 50.01
555 Dooms Levi 01:43:25 49.84
556 Vochten Stijn 01:43:30 49.78
557 Bostoen Evelien 01:43:33 55.80
558 Nicolay Bram 01:43:52 49.47
559 Robben Karen 01:44:02 55.47
560 Viaene Anne 01:44:04 55.45
561 Van Der Stichelen Elise 01:44:05 55.44
562 Verbeke Caroline 01:44:08 55.40
563 Reyntens Kristien 01:44:19 55.28
564 Degrande Peter 01:44:28 48.98
565 Vandenbulcke Emmy 01:44:30 55.15
566 De Boever Philippe 01:44:35 48.88
567 Eylenbosch Leen 01:44:41 55.02
568 Van Den Bossche Koen 01:44:47 48.72
569 De Poorter Peter 01:44:56 48.59
570 Verhelst Hilde 01:44:58 54.83
571 Ickx Isabelle 01:45:06 54.74
572 Van Caenegem Nele 01:45:07 54.73
573 Francois Jill 01:45:12 54.67
574 Villette Emily 01:45:13 54.66
575 Decoster Leene 01:45:20 54.58
576 Dehenau Anneleen 01:45:31 54.45
577 Lasonder Guido 01:45:34 48.07
578 Carlier Trui 01:45:34 54.42
579 Messiaen Vincent 01:45:42 47.96
580 Thys Karel 01:45:49 47.87
581 De Cabooter Nancy 01:45:51 54.22
582 Stiernet Yseult 01:45:55 54.18
583 Vervecken Jan 01:46:09 47.59
584 Caessens Carine 01:46:19 53.90
585 Daenekindt Sophie 01:46:32 53.75
586 Jacques Annelies 01:46:39 53.67
587 Boel Soen Jong 01:46:42 53.64
588 Nijsten Wim 01:46:48 47.06
589 Victoor Inge 01:47:17 53.24
590 De Regge Melissa 01:47:34 53.04
591 Struyf Hanne 01:47:38 53.00
592 Spiessens Karen 01:48:14 52.58
593 Vercaemer Catharine 01:48:24 52.47
594 Jorens Noëmie 01:48:35 52.34
595 Bellinkx Sarah 01:49:09 51.95
596 Michel Stephanie 01:49:11 51.93
597 Windels Ann 01:49:11 51.93
598 De Clercq Els 01:49:44 51.55
599 Baecke Myriam 01:50:17 51.18
600 Dekyndt Katie 01:50:33 50.99
601 Reynebeau Evelyne 01:51:15 50.51
602 De Kegel Stijn 01:51:22 43.30
603 Falcone Laurent 01:51:23 43.28
604 De Groote Johanna 01:51:28 50.36
605 Declerck Joke 01:51:43 50.19
606 Van Meenen Claudine 01:51:58 50.02
607 Beirnaert Sophie 01:53:22 49.06
608 D'hont Jean 01:53:37 41.44
609 De Wit Luut 01:53:38 48.87
610 Hallynck Livia 01:53:50 48.74
611 Legrand Gwenaëlle 01:53:52 48.71
612 Leroy Charlotte 01:55:15 47.76
613 Vanholder Inez 01:55:15 47.76
614 De Wolf Ellen 01:55:39 47.49
615 De Koker Isabel 01:56:13 47.10
616 Rigot Kevin 01:56:16 39.26
617 Meul Marjorie 01:57:03 0.00
618 Lewyllie Hanne 01:57:12 46.42
619 Micholt Alex 01:57:23 38.34
620 Vandesype Jana 01:57:53 45.95
621 Dauwe Rut 01:58:25 45.59
622 De Pooter Veerle 01:59:24 44.91
623 Cocquyt Sofie